Waarnemingen

Advertentie
Mijn weer
Isle Of Man/Ronaldsway, Groot Brittannië (3204): temperatuur & dauwpunt: 09.12.2017 19:00:00 - 15.12.2017 19:00:00 (GMT)Isle Of Man/Ronaldsway, Groot Brittannië (3204): temperatuur -20cm & temperatuur -100cm: 09.12.2017 19:00:00 - 15.12.2017 19:00:00 (GMT)Isle Of Man/Ronaldsway, Groot Brittannië (3204): windsnelheid & windstoten: 09.12.2017 19:00:00 - 15.12.2017 19:00:00 (GMT)Isle Of Man/Ronaldsway, Groot Brittannië (3204): windrichting: 09.12.2017 19:00:00 - 15.12.2017 19:00:00 (GMT)Isle Of Man/Ronaldsway, Groot Brittannië (3204): luchtdruk: 09.12.2017 19:00:00 - 15.12.2017 19:00:00 (GMT)Isle Of Man/Ronaldsway, Groot Brittannië (3204): zicht: 09.12.2017 19:00:00 - 15.12.2017 19:00:00 (GMT)Isle Of Man/Ronaldsway, Groot Brittannië (3204): Zonneschijnduur: 09.12.2017 19:00:00 - 15.12.2017 19:00:00 (GMT)Isle Of Man/Ronaldsway, Groot Brittannië (3204): neerslag: 09.12.2017 19:00:00 - 15.12.2017 19:00:00 (GMT)
Datum & Tijd tt [°C] td [°C] tt -20cm [°C] tt -100cm [°C] ff [km/u] ff [kn] fx [km/u] fx [kn] dd ppp [hPa] vv [km] sd [min] rr [mm]
15.12.2017 19:00:00 5,1 1,1 - - 8 4 - - NO 1011,7 10 0 0,2
15.12.2017 18:00:00 5,7 0,1 - - 18 10 - - - 1010,9 10 0 0,0
15.12.2017 17:00:00 5,4 -0,9 - - 18 10 - - NNW 1010,4 10 0 0,0
15.12.2017 16:00:00 6,0 -1,1 - - 18 10 - - N 1009,6 10 18 0,0
15.12.2017 15:00:00 6,6 -1,3 - - 21 11 - - N 1008,9 10 60 0,0
15.12.2017 14:00:00 6,9 -1,9 - - 28 15 46 25 N 1008,2 10 60 0,0
15.12.2017 13:00:00 7,0 -0,6 - - 26 14 48 26 N 1007,3 10 54 0,0
15.12.2017 12:00:00 6,8 -0,8 - - 31 17 52 28 N 1006,4 10 0 0,0
15.12.2017 11:00:00 6,8 -0,1 - - 37 20 55 30 N 1005,1 10 18 0,0
15.12.2017 10:00:00 6,7 0,5 - - 39 21 57 31 N 1003,6 10 0 0,0
15.12.2017 09:00:00 6,8 1,2 5,7 7,7 31 17 52 28 N 1002,2 10 0 0,0
15.12.2017 08:00:00 6,3 1,1 - - 21 11 - - N 1000,7 10 0 0,0
15.12.2017 07:00:00 5,5 0,7 - - 9 5 - - N 999,2 10 0 0,0
15.12.2017 06:00:00 2,9 -0,3 - - 5 3 - - - 998,1 10 0 0,0
15.12.2017 05:00:00 4,5 -0,8 - - 15 8 - - N 996,7 10 0 0,0
15.12.2017 04:00:00 3,4 0,0 - - 11 6 - - NNO 995,6 10 0 0,0
15.12.2017 03:00:00 4,1 0,7 - - 26 14 46 25 N 993,8 10 0 0,0
15.12.2017 02:00:00 4,7 2,3 - - 28 15 - - N 991,3 10 0 0,0
15.12.2017 01:00:00 4,9 2,3 - - 26 14 54 29 N 988,5 10 0 0,0
15.12.2017 00:00:00 7,0 3,6 - - 39 21 65 35 WNW 986,3 10 - 0,6
14.12.2017 23:00:00 7,0 3,7 - - 39 21 61 33 WNW 986,3 10 0 0,0
14.12.2017 22:00:00 6,5 3,6 - - 35 19 55 30 WNW 985,9 10 0 0,2
14.12.2017 21:00:00 4,6 2,5 - - 31 17 59 32 W 986,3 10 0 0,8
14.12.2017 20:00:00 4,8 2,5 - - 39 21 65 35 WNW 986,7 4,0 0 1,0
14.12.2017 19:00:00 6,2 2,3 - - 34 18 59 32 WNW 985,9 10 0 0,4
14.12.2017 18:00:00 6,5 1,4 - - 26 14 54 29 WNW 984,9 10 0 0,0
14.12.2017 17:00:00 5,9 1,9 - - 34 18 55 30 WNW 984,0 10 0 0,0
14.12.2017 16:00:00 5,9 2,0 - - 31 17 54 29 NW 983,5 10 0 0,0
14.12.2017 15:00:00 5,4 2,5 - - 31 17 55 30 WNW 982,9 10 0 0,0
14.12.2017 14:00:00 5,8 3,1 - - 46 25 61 33 W 982,2 10 0 0,2
14.12.2017 13:00:00 6,0 2,8 - - 44 24 68 37 W 982,4 10 0 0,0
14.12.2017 12:00:00 6,0 2,7 - - 46 25 67 36 WZW 983,2 10 0 0,0
14.12.2017 11:00:00 5,9 2,5 - - 46 25 65 35 WZW 984,1 10 0 0,0
14.12.2017 10:00:00 5,5 2,3 - - 48 26 74 40 WZW 984,5 10 0 0,0
14.12.2017 09:00:00 5,6 1,8 5,7 7,7 44 24 63 34 WZW 984,8 10 0 0,0
14.12.2017 08:00:00 5,5 1,9 - - 39 21 57 31 WZW 985,3 10 0 0,0
14.12.2017 07:00:00 5,1 1,7 - - 41 22 63 34 W 985,6 10 0 0,0
14.12.2017 06:00:00 4,8 2,0 - - 35 19 59 32 W 986,0 10 0 0,0
14.12.2017 05:00:00 4,5 2,2 - - 35 19 67 36 W 986,4 10 0 0,2
14.12.2017 04:00:00 4,9 2,2 - - 42 23 65 35 W 986,2 10 0 0,0
14.12.2017 03:00:00 4,8 2,1 - - 35 19 59 32 W 986,6 10 0 0,0
14.12.2017 02:00:00 4,5 2,2 - - 37 20 57 31 W 987,0 10 0 0,0
14.12.2017 01:00:00 4,8 1,6 - - 34 18 54 29 W 986,9 - 0 0,0
14.12.2017 00:00:00 4,7 1,6 - - 34 18 54 29 W 986,9 10 - 0,0
13.12.2017 23:00:00 4,6 1,5 - - 35 19 52 28 W 986,9 10 0 0,0
13.12.2017 22:00:00 4,7 1,7 - - 31 17 57 31 W 987,0 10 0 0,0
13.12.2017 21:00:00 4,6 0,6 - - 34 18 59 32 W 987,0 10 0 0,0
13.12.2017 20:00:00 4,4 0,4 - - 39 21 68 37 WNW 986,4 10 0 0,0
13.12.2017 19:00:00 4,8 0,4 - - 39 21 54 29 W 986,2 10 0 0,0
13.12.2017 18:00:00 5,1 1,7 - - 37 20 57 31 W 986,3 10 0 0,0
13.12.2017 17:00:00 5,4 0,5 - - 35 19 55 30 W 986,8 10 0 0,0
13.12.2017 16:00:00 5,5 0,1 - - 41 22 57 31 W 987,3 10 0 0,0
13.12.2017 15:00:00 5,4 0,8 - - 37 20 54 29 W 987,6 10 18 0,0
13.12.2017 14:00:00 5,6 1,1 - - 42 23 59 32 W 988,1 10 36 0,0
13.12.2017 13:00:00 6,5 1,8 - - 42 23 55 30 W 988,6 10 30 0,0
13.12.2017 12:00:00 6,6 0,7 - - 42 23 63 34 WNW 989,0 10 0 0,0
13.12.2017 11:00:00 6,6 3,3 - - 34 18 67 36 W 989,1 10 0 0,0
13.12.2017 10:00:00 6,7 3,9 - - 42 23 68 37 W 989,7 10 0 2,2
13.12.2017 09:00:00 8,1 5,5 5,2 7,7 46 25 68 37 WZW 990,5 9 0 0,0
13.12.2017 08:00:00 8,4 5,4 - - 50 27 65 35 WZW 991,8 10 0 0,0
13.12.2017 07:00:00 8,5 5,2 - - 41 22 63 34 WZW 992,9 10 0 0,0
13.12.2017 06:00:00 8,1 5,4 - - 35 19 54 29 WZW 994,3 10 0 0,0
13.12.2017 05:00:00 8,0 5,2 - - 35 19 - - WZW 995,5 10 0 0,0
13.12.2017 04:00:00 7,7 4,7 - - 28 15 50 27 WZW 996,6 10 0 0,0
13.12.2017 03:00:00 7,5 4,6 - - 28 15 48 26 WZW 997,4 10 0 0,0
13.12.2017 02:00:00 7,3 4,8 - - 24 13 - - WZW 997,9 10 0 0,0
13.12.2017 01:00:00 7,5 4,7 - - 22 12 - - WZW 998,4 10 0 0,0
13.12.2017 00:00:00 7,3 5,0 - - 21 11 - - WZW 998,7 10 - 0,0
12.12.2017 23:00:00 7,3 4,2 - - 22 12 - - W 998,7 10 0 0,0
12.12.2017 22:00:00 7,2 3,4 - - 22 12 - - W 998,7 10 0 0,0
12.12.2017 21:00:00 6,7 4,8 - - 16 9 - - W 998,6 10 0 0,0
12.12.2017 20:00:00 6,8 4,7 - - 26 14 55 30 W 998,5 10 0 0,0
12.12.2017 19:00:00 7,7 6,0 - - 35 19 70 38 WZW 998,6 10 0 1,2
12.12.2017 18:00:00 7,2 6,1 - - 50 27 65 35 ZZW 999,1 6 0 2,2
12.12.2017 17:00:00 6,9 5,3 - - 42 23 55 30 ZW 1000,3 6 0 1,0
12.12.2017 16:00:00 6,8 2,0 - - 39 21 52 28 ZW 1001,4 10 0 0,2
12.12.2017 15:00:00 7,3 3,1 - - 31 17 - - ZW 1001,6 10 0 0,0
12.12.2017 14:00:00 7,3 2,6 - - 28 15 - - ZW 1002,6 10 0 0,0
12.12.2017 13:00:00 6,9 3,4 - - 22 12 - - ZW 1003,7 10 0 0,0
12.12.2017 12:00:00 6,7 3,3 - - 24 13 - - ZW 1004,5 10 0 0,0
12.12.2017 11:00:00 6,2 2,5 - - 18 10 - - ZW 1004,4 10 0 0,0
12.12.2017 10:00:00 2,7 1,1 - - 5 3 - - - 1004,5 10 0 0,0
12.12.2017 09:00:00 1,1 0,2 5,0 8,0 5 3 - - N 1004,7 10 0 0,0
12.12.2017 08:00:00 1,2 -0,2 - - 8 4 - - NW 1004,9 10 0 0,0
12.12.2017 07:00:00 1,3 -0,1 - - 4 2 - - NNW 1004,7 10 0 0,0
12.12.2017 06:00:00 1,3 -0,4 - - 9 5 - - N 1004,3 10 0 0,0
12.12.2017 05:00:00 0,2 -1,0 - - 9 5 - - N 1003,9 10 0 0,0
12.12.2017 04:00:00 -0,2 -2,0 - - 8 4 - - N 1003,6 10 0 0,0
12.12.2017 03:00:00 -0,8 -2,4 - - 9 5 - - N 1003,5 10 0 0,0
12.12.2017 02:00:00 -1,2 -2,6 - - 9 5 - - NNO 1003,1 10 0 0,0
12.12.2017 01:00:00 0,2 -1,7 - - 15 8 - - N 1002,5 10 0 0,0
12.12.2017 00:00:00 2,2 -0,7 - - 9 5 - - NW 1001,5 10 - 0,0
11.12.2017 23:00:00 -0,5 -2,4 - - 8 4 - - N 1000,6 10 0 0,0
11.12.2017 22:00:00 2,9 -0,3 - - 5 3 - - - 999,9 10 0 0,0
11.12.2017 21:00:00 0,8 -1,3 - - 4 2 - - - 999,3 10 0 0,0
11.12.2017 20:00:00 2,6 -0,7 - - 9 5 - - N 998,5 10 0 0,0
11.12.2017 19:00:00 1,7 -0,5 - - 11 6 - - N 996,8 10 0 0,0
11.12.2017 18:00:00 1,9 -0,5 - - 4 2 - - - 995,2 10 0 0,0
11.12.2017 17:00:00 1,4 -0,6 - - 11 6 - - N 994,8 10 0 0,0
11.12.2017 16:00:00 3,1 0,1 - - 9 5 - - NW 994,0 10 6 0,0
11.12.2017 15:00:00 4,0 0,6 - - 9 5 - - NNW 992,8 10 60 0,0
11.12.2017 14:00:00 4,6 0,7 - - 8 4 - - N 992,0 10 60 0,0
11.12.2017 13:00:00 4,1 1,2 - - 9 5 - - NO 991,6 10 6 0,0
11.12.2017 12:00:00 3,9 1,2 - - 13 7 - - NNO 991,1 10 18 0,0
11.12.2017 11:00:00 2,4 1,3 - - 9 5 - - NNO 990,6 9 0 0,4
11.12.2017 10:00:00 1,4 0,2 - - 4 2 - - - 989,7 10 0 0,0
11.12.2017 09:00:00 -0,3 -2,8 6,0 8,5 4 2 - - - 989,1 10 0 0,0
11.12.2017 08:00:00 -1,2 -5,0 - - 4 2 - - - 988,3 10 0 0,0
11.12.2017 07:00:00 0,4 -4,1 - - 5 3 - - - 987,5 10 0 0,0
11.12.2017 06:00:00 -0,4 -5,2 - - 11 6 - - N 987,2 10 0 0,0
11.12.2017 05:00:00 -1,4 -5,4 - - 13 7 - - N 987,1 10 0 0,0
11.12.2017 04:00:00 -1,1 -5,0 - - 13 7 - - N 987,0 10 0 0,0
11.12.2017 03:00:00 -1,8 -5,1 - - 4 2 - - NNO 986,8 50 0 0,0
11.12.2017 02:00:00 -1,7 -5,4 - - 9 5 - - NNO 986,3 10 0 0,0
11.12.2017 01:00:00 -0,6 -3,9 - - 13 7 - - N 985,7 10 0 0,0
11.12.2017 00:00:00 -1,7 -4,6 - - 16 9 - - NNO 985,5 10 - 0,0
10.12.2017 23:00:00 -0,7 -4,1 - - 11 6 - - N 984,9 10 0 0,0
10.12.2017 22:00:00 -0,4 -3,7 - - 13 7 - - N 984,4 10 0 0,0
10.12.2017 21:00:00 -0,9 -4,0 - - 13 7 - - N 983,8 10 0 0,0
10.12.2017 20:00:00 -0,8 -3,8 - - 13 7 - - N 983,2 10 0 0,0
10.12.2017 19:00:00 -1,6 -4,7 - - 9 5 - - N 982,7 10 0 0,0
10.12.2017 18:00:00 -0,5 -4,7 - - 11 6 - - N 982,2 10 0 0,0
10.12.2017 17:00:00 -0,1 -3,4 - - 15 8 - - NNO 981,7 10 0 0,0
10.12.2017 16:00:00 0,5 -2,7 - - 16 9 - - NNO 981,5 10 0 0,0
10.12.2017 15:00:00 1,6 -1,5 - - 21 11 - - NNO 980,9 10 0 0,0
10.12.2017 14:00:00 2,6 -1,1 - - 16 9 - - NNO 980,5 10 6 0,0
10.12.2017 13:00:00 2,6 -0,9 - - 16 9 - - NNO 980,6 10 0 0,0
10.12.2017 12:00:00 2,6 -0,7 - - 21 11 - - NNO 980,7 10 0 0,0
10.12.2017 11:00:00 3,0 -0,5 - - 16 9 - - NNO 981,0 10 0 0,0
10.12.2017 10:00:00 3,1 -0,6 - - 21 11 - - NNO 981,3 10 0 0,0
10.12.2017 09:00:00 3,5 -0,5 6,2 8,7 29 16 - - O 981,8 10 0 0,0
10.12.2017 08:00:00 3,0 -0,5 - - 31 17 50 27 O 982,6 10 0 0,0
10.12.2017 07:00:00 3,9 1,7 - - 35 19 50 27 O 983,8 10 0 0,0
10.12.2017 06:00:00 3,9 0,9 - - 31 17 - - O 985,0 10 0 0,0
10.12.2017 05:00:00 4,0 0,6 - - 28 15 - - O 986,6 30 0 0,0
10.12.2017 04:00:00 3,9 0,3 - - 26 14 - - O 988,7 10 0 0,0
10.12.2017 03:00:00 2,2 -2,2 - - 15 8 - - NNO 991,6 10 0 0,0
10.12.2017 02:00:00 1,9 -2,0 - - 9 5 - - N 994,4 30 0 0,0
10.12.2017 01:00:00 1,9 -1,1 - - 8 4 - - NNO 996,3 10 0 0,0
10.12.2017 00:00:00 2,2 -0,3 - - 5 3 - - NNO 998,2 10 - 0,0
09.12.2017 23:00:00 2,5 0,1 - - 8 4 - - NNO 1000,4 10 0 0,0
09.12.2017 22:00:00 3,0 0,0 - - 5 3 - - NNO 1002,3 10 0 0,0
09.12.2017 21:00:00 3,9 -0,5 - - 5 3 - - NNW 1003,5 10 0 0,0
09.12.2017 20:00:00 4,1 -1,2 - - 8 4 - - W 1005,2 10 0 0,0
09.12.2017 19:00:00 4,1 -1,3 - - 13 7 - - W 1006,7 10 0 0,0

tt = temperatuur
td = dauwpunt
tt -20cm = temperatuur -20cm
tt -100cm = temperatuur -100cm
ff = windsnelheid
fx = windstoten
dd = windrichting
ppp = luchtdruk
vv = zicht
sd = Zonneschijnduur
rr = neerslag

Weerstations in de omgeving